sat.trackr.live / text

‹ back to catalog

STARLINK-11101 [DTC]

NORAD 59715 · 2024-088H

PAYLOAD ACTIVE UNKNOWN

§ Identity

Operator
Country
US
Launch date
2024-05-10
Launch site
AFWTR
Launch vehicle
Mass (kg)
RCS (m²)

Purposes: comms

External: N2YO · Heavens-Above · Gunter

§ Orbital elements

Epoch: 2026-09-21T22:04:24.804192Z

Period
91.74 min
Inclination
53.1606°
Eccentricity
0.0001031
Mean motion
15.69706697 rev/d
Perigee alt
359.0 km
Apogee alt
360.4 km
Semi-major
6,737.9 km
B*
6.5504e-6
RAAN
78.8335°
Arg perigee
80.6729°
Mean anomaly
279.4405°
Rev number
13,709

§ Raw data

STARLINK-11101 [DTC]1 59715U 24088H   26264.91973153  .00000205  00000+0  65504-5 0  99982 59715  53.1606  78.8335 0001031  80.6729 279.4405 15.69706697137098

JSON: /api/v1/satellites/59715 · /tle

For live sub-satellite position, see the globe view (requires WebGL).

§ Visibility from observer

Set your observer location to see the next 7 days of passes ≥ 10°. The values pass through the URL so the page stays shareable.

No JS? Fill the form by hand. The geolocation button needs JavaScript.